Year,Month,Day,Hour,Minute,Value (Times are PST for temperature in C)
2007,05,24,00,00,10.00
2007,05,24,00,01,10.00
2007,05,24,00,02,9.90
2007,05,24,00,03,9.90
2007,05,24,00,04,9.90
2007,05,24,00,05,9.90
2007,05,24,00,06,9.90
2007,05,24,00,07,9.90
2007,05,24,00,08,9.90
2007,05,24,00,09,9.80
2007,05,24,00,10,9.80
2007,05,24,00,11,9.80
2007,05,24,00,12,9.80
2007,05,24,00,13,9.80
2007,05,24,00,14,9.80
2007,05,24,00,15,9.80
2007,05,24,00,16,9.80
2007,05,24,00,17,9.70
2007,05,24,00,18,9.70
2007,05,24,00,19,9.70
2007,05,24,00,20,9.70
2007,05,24,00,21,9.70
2007,05,24,00,22,9.70
2007,05,24,00,23,9.60
2007,05,24,00,24,9.60
2007,05,24,00,25,9.60
2007,05,24,00,26,9.60
2007,05,24,00,27,9.60
2007,05,24,00,28,9.60
2007,05,24,00,29,9.50
2007,05,24,00,30,9.50
2007,05,24,00,31,9.50
2007,05,24,00,32,9.50
2007,05,24,00,33,9.40
2007,05,24,00,34,9.40
2007,05,24,00,35,9.40
2007,05,24,00,36,9.40
2007,05,24,00,37,9.40
2007,05,24,00,38,9.40
2007,05,24,00,39,9.40
2007,05,24,00,40,9.30
2007,05,24,00,41,9.30
2007,05,24,00,42,9.30
2007,05,24,00,43,9.30
2007,05,24,00,44,9.30
2007,05,24,00,45,9.30
2007,05,24,00,46,9.30
2007,05,24,00,47,9.30
2007,05,24,00,48,9.30
2007,05,24,00,49,9.30
2007,05,24,00,50,9.30
2007,05,24,00,51,9.30
2007,05,24,00,52,9.40
2007,05,24,00,53,9.40
2007,05,24,00,54,9.40
2007,05,24,00,55,9.40
2007,05,24,00,56,9.40
2007,05,24,00,57,9.40
2007,05,24,00,58,9.40
2007,05,24,00,59,9.40
2007,05,24,01,00,9.40
2007,05,24,01,01,9.40
2007,05,24,01,02,9.40
2007,05,24,01,03,9.40
2007,05,24,01,04,9.40
2007,05,24,01,05,9.30
2007,05,24,01,06,9.30
2007,05,24,01,07,9.30
2007,05,24,01,08,9.30
2007,05,24,01,09,9.30
2007,05,24,01,10,9.20
2007,05,24,01,11,9.20
2007,05,24,01,12,9.20
2007,05,24,01,13,9.20
2007,05,24,01,14,9.20
2007,05,24,01,15,9.20
2007,05,24,01,16,9.20
2007,05,24,01,17,9.10
2007,05,24,01,18,9.10
2007,05,24,01,19,9.10
2007,05,24,01,20,9.10
2007,05,24,01,21,9.10
2007,05,24,01,22,9.10
2007,05,24,01,23,9.00
2007,05,24,01,24,9.00
2007,05,24,01,25,9.00
2007,05,24,01,26,9.00
2007,05,24,01,27,9.00
2007,05,24,01,28,9.10
2007,05,24,01,29,9.10
2007,05,24,01,30,9.10
2007,05,24,01,31,9.10
2007,05,24,01,32,9.10
2007,05,24,01,33,9.10
2007,05,24,01,34,9.00
2007,05,24,01,35,9.00
2007,05,24,01,36,9.00
2007,05,24,01,37,9.00
2007,05,24,01,38,9.00
2007,05,24,01,39,8.90
2007,05,24,01,40,8.90
2007,05,24,01,41,8.90
2007,05,24,01,42,8.90
2007,05,24,01,43,8.90
2007,05,24,01,44,8.80
2007,05,24,01,45,8.80
2007,05,24,01,46,8.80
2007,05,24,01,47,8.80
2007,05,24,01,48,8.90
2007,05,24,01,49,8.90
2007,05,24,01,50,8.90
2007,05,24,01,51,8.90
2007,05,24,01,52,8.80
2007,05,24,01,53,8.80
2007,05,24,01,54,8.80
2007,05,24,01,55,8.80
2007,05,24,01,56,8.80
2007,05,24,01,57,8.80
2007,05,24,01,58,8.80
2007,05,24,01,59,8.80
2007,05,24,02,00,8.80
2007,05,24,02,01,8.80
2007,05,24,02,02,8.80
2007,05,24,02,03,8.70
2007,05,24,02,04,8.70
2007,05,24,02,05,8.70
2007,05,24,02,06,8.70
2007,05,24,02,07,8.70
2007,05,24,02,08,8.70
2007,05,24,02,09,8.70
2007,05,24,02,10,8.70
2007,05,24,02,11,8.70
2007,05,24,02,12,8.60
2007,05,24,02,13,8.60
2007,05,24,02,14,8.60
2007,05,24,02,15,8.60
2007,05,24,02,16,8.60
2007,05,24,02,17,8.50
2007,05,24,02,18,8.50
2007,05,24,02,19,8.50
2007,05,24,02,20,8.40
2007,05,24,02,21,8.40
2007,05,24,02,22,8.40
2007,05,24,02,23,8.30
2007,05,24,02,24,8.30
2007,05,24,02,25,8.30
2007,05,24,02,26,8.30
2007,05,24,02,27,8.30
2007,05,24,02,28,8.20
2007,05,24,02,29,8.20
2007,05,24,02,30,8.20
2007,05,24,02,31,8.20
2007,05,24,02,32,8.20
2007,05,24,02,33,8.20
2007,05,24,02,34,8.20
2007,05,24,02,35,8.20
2007,05,24,02,36,8.20
2007,05,24,02,37,8.20
2007,05,24,02,38,8.20
2007,05,24,02,39,8.20
2007,05,24,02,40,8.20
2007,05,24,02,41,8.10
2007,05,24,02,42,8.10
2007,05,24,02,43,8.10
2007,05,24,02,44,8.10
2007,05,24,02,45,8.20
2007,05,24,02,46,8.20
2007,05,24,02,47,8.20
2007,05,24,02,48,8.20
2007,05,24,02,49,8.20
2007,05,24,02,50,8.10
2007,05,24,02,51,8.10
2007,05,24,02,52,8.10
2007,05,24,02,53,8.10
2007,05,24,02,54,8.10
2007,05,24,02,55,8.10
2007,05,24,02,56,8.10
2007,05,24,02,57,8.00
2007,05,24,02,58,8.00
2007,05,24,02,59,8.00
2007,05,24,03,00,8.00
2007,05,24,03,01,8.00
2007,05,24,03,02,7.90
2007,05,24,03,03,7.90
2007,05,24,03,04,7.90
2007,05,24,03,05,7.90
2007,05,24,03,06,7.80
2007,05,24,03,07,7.80
2007,05,24,03,08,7.80
2007,05,24,03,09,7.80
2007,05,24,03,10,7.80
2007,05,24,03,11,7.80
2007,05,24,03,12,7.80
2007,05,24,03,13,7.80
2007,05,24,03,14,7.80
2007,05,24,03,15,7.70
2007,05,24,03,16,7.70
2007,05,24,03,17,7.70
2007,05,24,03,18,7.70
2007,05,24,03,19,7.70
2007,05,24,03,20,7.70
2007,05,24,03,21,7.70
2007,05,24,03,22,7.70
2007,05,24,03,23,7.70
2007,05,24,03,24,7.70
2007,05,24,03,25,7.70
2007,05,24,03,26,7.70
2007,05,24,03,27,7.70
2007,05,24,03,28,7.60
2007,05,24,03,29,7.60
2007,05,24,03,30,7.60
2007,05,24,03,31,7.60
2007,05,24,03,32,7.60
2007,05,24,03,33,7.60
2007,05,24,03,34,7.60
2007,05,24,03,35,7.60
2007,05,24,03,36,7.60
2007,05,24,03,37,7.60
2007,05,24,03,38,7.50
2007,05,24,03,39,7.50
2007,05,24,03,40,7.50
2007,05,24,03,41,7.50
2007,05,24,03,42,7.40
2007,05,24,03,43,7.40
2007,05,24,03,44,7.40
2007,05,24,03,45,7.40
2007,05,24,03,46,7.40
2007,05,24,03,47,7.30
2007,05,24,03,48,7.30
2007,05,24,03,49,7.30
2007,05,24,03,50,7.30
2007,05,24,03,51,7.30
2007,05,24,03,52,7.30
2007,05,24,03,53,7.30
2007,05,24,03,54,7.30
2007,05,24,03,55,7.30
2007,05,24,03,56,7.30
2007,05,24,03,57,7.30
2007,05,24,03,58,7.30
2007,05,24,03,59,7.30
2007,05,24,04,00,7.30
2007,05,24,04,01,7.30
2007,05,24,04,02,7.30
2007,05,24,04,03,7.30
2007,05,24,04,04,7.30
2007,05,24,04,05,7.30
2007,05,24,04,06,7.30
2007,05,24,04,07,7.30
2007,05,24,04,08,7.30
2007,05,24,04,09,7.30
2007,05,24,04,10,7.30
2007,05,24,04,11,7.20
2007,05,24,04,12,7.20
2007,05,24,04,13,7.20
2007,05,24,04,14,7.20
2007,05,24,04,15,7.20
2007,05,24,04,16,7.20
2007,05,24,04,17,7.20
2007,05,24,04,18,7.20
2007,05,24,04,19,7.10
2007,05,24,04,20,7.10
2007,05,24,04,21,7.10
2007,05,24,04,22,7.10
2007,05,24,04,23,7.10
2007,05,24,04,24,7.10
2007,05,24,04,25,7.10
2007,05,24,04,26,7.10
2007,05,24,04,27,7.10
2007,05,24,04,28,7.10
2007,05,24,04,29,7.10
2007,05,24,04,30,7.10
2007,05,24,04,31,7.10
2007,05,24,04,32,7.10
2007,05,24,04,33,7.10
2007,05,24,04,34,7.10
2007,05,24,04,35,7.10
2007,05,24,04,36,7.10
2007,05,24,04,37,7.10
2007,05,24,04,38,7.10
2007,05,24,04,39,7.10
2007,05,24,04,40,7.10
2007,05,24,04,41,7.10
2007,05,24,04,42,7.10
2007,05,24,04,43,7.10
2007,05,24,04,44,7.10
2007,05,24,04,45,7.10
2007,05,24,04,46,7.10
2007,05,24,04,47,7.10
2007,05,24,04,48,7.10
2007,05,24,04,49,7.10
2007,05,24,04,50,7.20
2007,05,24,04,51,7.20
2007,05,24,04,52,7.20
2007,05,24,04,53,7.20
2007,05,24,04,54,7.10
2007,05,24,04,55,7.10
2007,05,24,04,56,7.10
2007,05,24,04,57,7.10
2007,05,24,04,58,7.10
2007,05,24,04,59,7.10
2007,05,24,05,00,7.10
2007,05,24,05,01,7.10
2007,05,24,05,02,7.10
2007,05,24,05,03,7.10
2007,05,24,05,04,7.10
2007,05,24,05,05,7.20
2007,05,24,05,06,7.20
2007,05,24,05,07,7.20
2007,05,24,05,08,7.20
2007,05,24,05,09,7.20
2007,05,24,05,10,7.20
2007,05,24,05,11,7.20
2007,05,24,05,12,7.20
2007,05,24,05,13,7.20
2007,05,24,05,14,7.20
2007,05,24,05,15,7.20
2007,05,24,05,16,7.20
2007,05,24,05,17,7.30
2007,05,24,05,18,7.30
2007,05,24,05,19,7.30
2007,05,24,05,20,7.40
2007,05,24,05,21,7.40
2007,05,24,05,22,7.50
2007,05,24,05,23,7.50
2007,05,24,05,24,7.50
2007,05,24,05,25,7.60
2007,05,24,05,26,7.60
2007,05,24,05,27,7.60
2007,05,24,05,28,7.60
2007,05,24,05,29,7.70
2007,05,24,05,30,7.70
2007,05,24,05,31,7.70
2007,05,24,05,32,7.70
2007,05,24,05,33,7.70
2007,05,24,05,34,7.80
2007,05,24,05,35,7.90
2007,05,24,05,36,8.10
2007,05,24,05,37,8.20
2007,05,24,05,38,8.40
2007,05,24,05,39,8.60
2007,05,24,05,40,8.80
2007,05,24,05,41,8.90
2007,05,24,05,42,9.10
2007,05,24,05,43,9.30
2007,05,24,05,44,9.50
2007,05,24,05,45,9.70
2007,05,24,05,46,9.80
2007,05,24,05,47,9.80
2007,05,24,05,48,9.90
2007,05,24,05,49,9.90
2007,05,24,05,50,10.00
2007,05,24,05,51,10.00
2007,05,24,05,52,10.00
2007,05,24,05,53,9.90
2007,05,24,05,54,9.90
2007,05,24,05,55,9.90
2007,05,24,05,56,9.90
2007,05,24,05,57,10.00
2007,05,24,05,58,10.00
2007,05,24,05,59,10.10
2007,05,24,06,00,10.20
2007,05,24,06,01,10.30
2007,05,24,06,02,10.30
2007,05,24,06,03,10.40
2007,05,24,06,04,10.50
2007,05,24,06,05,10.60
2007,05,24,06,06,10.70
2007,05,24,06,07,10.70
2007,05,24,06,08,10.80
2007,05,24,06,09,10.80
2007,05,24,06,10,10.90
2007,05,24,06,11,10.90
2007,05,24,06,12,11.00
2007,05,24,06,13,11.00
2007,05,24,06,14,11.10
2007,05,24,06,15,11.10
2007,05,24,06,16,11.20
2007,05,24,06,17,11.20
2007,05,24,06,18,11.20
2007,05,24,06,19,11.30
2007,05,24,06,20,11.30
2007,05,24,06,21,11.40
2007,05,24,06,22,11.50
2007,05,24,06,23,11.50
2007,05,24,06,24,11.50
2007,05,24,06,25,11.60
2007,05,24,06,26,11.60
2007,05,24,06,27,11.70
2007,05,24,06,28,11.70
2007,05,24,06,29,11.80
2007,05,24,06,30,11.80
2007,05,24,06,31,11.80
2007,05,24,06,32,11.90
2007,05,24,06,33,11.90
2007,05,24,06,34,12.00
2007,05,24,06,35,12.00
2007,05,24,06,36,12.00
2007,05,24,06,37,12.10
2007,05,24,06,38,12.10
2007,05,24,06,39,12.10
2007,05,24,06,40,12.10
2007,05,24,06,41,12.20
2007,05,24,06,42,12.20
2007,05,24,06,43,12.20
2007,05,24,06,44,12.30
2007,05,24,06,45,12.30
2007,05,24,06,46,12.30
2007,05,24,06,47,12.30
2007,05,24,06,48,12.40
2007,05,24,06,49,12.40
2007,05,24,06,50,12.40
2007,05,24,06,51,12.50
2007,05,24,06,52,12.50
2007,05,24,06,53,12.60
2007,05,24,06,54,12.70
2007,05,24,06,55,12.70
2007,05,24,06,56,12.70
2007,05,24,06,57,12.80
2007,05,24,06,58,12.80
2007,05,24,06,59,12.80
2007,05,24,07,00,12.90
2007,05,24,07,01,12.90
2007,05,24,07,02,12.90
2007,05,24,07,03,13.00
2007,05,24,07,04,13.00
2007,05,24,07,05,13.10
2007,05,24,07,06,13.10
2007,05,24,07,07,13.10
2007,05,24,07,08,13.20
2007,05,24,07,09,13.20
2007,05,24,07,10,13.20
2007,05,24,07,11,13.20
2007,05,24,07,12,13.20
2007,05,24,07,13,13.30
2007,05,24,07,14,13.30
2007,05,24,07,15,13.20
2007,05,24,07,16,13.20
2007,05,24,07,17,13.30
2007,05,24,07,18,13.30
2007,05,24,07,19,13.30
2007,05,24,07,20,13.30
2007,05,24,07,21,13.30
2007,05,24,07,22,13.30
2007,05,24,07,23,13.40
2007,05,24,07,24,13.40
2007,05,24,07,25,13.40
2007,05,24,07,26,13.40
2007,05,24,07,27,13.40
2007,05,24,07,28,13.40
2007,05,24,07,29,13.40
2007,05,24,07,30,13.40
2007,05,24,07,31,13.50
2007,05,24,07,32,13.50
2007,05,24,07,33,13.50
2007,05,24,07,34,13.60
2007,05,24,07,35,13.60
2007,05,24,07,36,13.60
2007,05,24,07,37,13.60
2007,05,24,07,38,13.60
2007,05,24,07,39,13.60
2007,05,24,07,40,13.60
2007,05,24,07,41,13.60
2007,05,24,07,42,13.60
2007,05,24,07,43,13.60
2007,05,24,07,44,13.70
2007,05,24,07,45,13.70
2007,05,24,07,46,13.70
2007,05,24,07,47,13.80
2007,05,24,07,48,13.80
2007,05,24,07,49,13.80
2007,05,24,07,50,13.80
2007,05,24,07,51,13.80
2007,05,24,07,52,13.80
2007,05,24,07,53,13.80
2007,05,24,07,54,13.80
2007,05,24,07,55,13.80
2007,05,24,07,56,13.80
2007,05,24,07,57,13.80
2007,05,24,07,58,13.80
2007,05,24,07,59,13.80
2007,05,24,08,00,13.90
2007,05,24,08,01,13.90
2007,05,24,08,02,14.00
2007,05,24,08,03,14.00
2007,05,24,08,04,14.10
2007,05,24,08,05,14.10
2007,05,24,08,06,14.10
2007,05,24,08,07,14.20
2007,05,24,08,08,14.20
2007,05,24,08,09,14.20
2007,05,24,08,10,14.20
2007,05,24,08,11,14.20
2007,05,24,08,12,14.20
2007,05,24,08,13,14.30
2007,05,24,08,14,14.30
2007,05,24,08,15,14.40
2007,05,24,08,16,14.40
2007,05,24,08,17,14.40
2007,05,24,08,18,14.30
2007,05,24,08,19,14.40
2007,05,24,08,20,14.40
2007,05,24,08,21,14.50
2007,05,24,08,22,14.50
2007,05,24,08,23,14.60
2007,05,24,08,24,14.60
2007,05,24,08,25,14.70
2007,05,24,08,26,14.70
2007,05,24,08,27,14.70
2007,05,24,08,28,14.70
2007,05,24,08,29,14.80
2007,05,24,08,30,14.90
2007,05,24,08,31,14.90
2007,05,24,08,32,15.00
2007,05,24,08,33,15.00
2007,05,24,08,34,15.00
2007,05,24,08,35,15.00
2007,05,24,08,36,15.00
2007,05,24,08,37,15.00
2007,05,24,08,38,15.00
2007,05,24,08,39,15.00
2007,05,24,08,40,15.00
2007,05,24,08,41,15.10
2007,05,24,08,42,15.20
2007,05,24,08,43,15.20
2007,05,24,08,44,15.20
2007,05,24,08,45,15.10
2007,05,24,08,46,15.10
2007,05,24,08,47,15.10
2007,05,24,08,48,15.00
2007,05,24,08,49,15.00
2007,05,24,08,50,15.00
2007,05,24,08,51,15.00
2007,05,24,08,52,15.00
2007,05,24,08,53,15.00
2007,05,24,08,54,15.00
2007,05,24,08,55,15.00
2007,05,24,08,56,15.10
2007,05,24,08,57,15.20
2007,05,24,08,58,15.30
2007,05,24,08,59,15.40
2007,05,24,09,00,15.40
2007,05,24,09,01,15.50
2007,05,24,09,02,15.50
2007,05,24,09,03,15.60
2007,05,24,09,04,15.70
2007,05,24,09,05,15.80
2007,05,24,09,06,15.80
2007,05,24,09,07,15.70
2007,05,24,09,08,15.70
2007,05,24,09,09,15.60
2007,05,24,09,10,15.60
2007,05,24,09,11,15.60
2007,05,24,09,12,15.60
2007,05,24,09,13,15.60
2007,05,24,09,14,15.60
2007,05,24,09,15,15.70
2007,05,24,09,16,15.70
2007,05,24,09,17,15.70
2007,05,24,09,18,15.70
2007,05,24,09,19,15.70
2007,05,24,09,20,15.70
2007,05,24,09,21,15.70
2007,05,24,09,22,15.70
2007,05,24,09,23,15.70
2007,05,24,09,24,15.80
2007,05,24,09,25,15.80
2007,05,24,09,26,15.80
2007,05,24,09,27,15.90
2007,05,24,09,28,15.90
2007,05,24,09,29,16.00
2007,05,24,09,30,16.00
2007,05,24,09,31,16.10
2007,05,24,09,32,16.20
2007,05,24,09,33,16.10
2007,05,24,09,34,16.10
2007,05,24,09,35,16.10
2007,05,24,09,36,16.00
2007,05,24,09,37,16.00
2007,05,24,09,38,15.90
2007,05,24,09,39,15.90
2007,05,24,09,40,15.90
2007,05,24,09,41,15.90
2007,05,24,09,42,16.00
2007,05,24,09,43,16.10
2007,05,24,09,44,16.10
2007,05,24,09,45,16.20
2007,05,24,09,46,16.30
2007,05,24,09,47,16.30
2007,05,24,09,48,16.30
2007,05,24,09,49,16.30
2007,05,24,09,50,16.30
2007,05,24,09,51,16.40
2007,05,24,09,52,16.50
2007,05,24,09,53,16.50
2007,05,24,09,54,16.50
2007,05,24,09,55,16.40
2007,05,24,09,56,16.30
2007,05,24,09,57,16.20
2007,05,24,09,58,16.20
2007,05,24,09,59,16.20
2007,05,24,10,00,16.30
2007,05,24,10,01,16.20
2007,05,24,10,02,16.20
2007,05,24,10,03,16.20
2007,05,24,10,04,16.20
2007,05,24,10,05,16.20
2007,05,24,10,06,16.20
2007,05,24,10,07,16.20
2007,05,24,10,08,16.30
2007,05,24,10,09,16.30
2007,05,24,10,10,16.30
2007,05,24,10,11,16.30
2007,05,24,10,12,16.30
2007,05,24,10,13,16.30
2007,05,24,10,14,16.20
2007,05,24,10,15,16.20
2007,05,24,10,16,16.20
2007,05,24,10,17,16.10
2007,05,24,10,18,16.10
2007,05,24,10,19,16.10
2007,05,24,10,20,16.10
2007,05,24,10,21,16.20
2007,05,24,10,22,16.20
2007,05,24,10,23,16.30
2007,05,24,10,24,16.30
2007,05,24,10,25,16.20
2007,05,24,10,26,16.20
2007,05,24,10,27,16.30
2007,05,24,10,28,16.30
2007,05,24,10,29,16.40
2007,05,24,10,30,16.50
2007,05,24,10,31,16.50
2007,05,24,10,32,16.60
2007,05,24,10,33,16.60
2007,05,24,10,34,16.60
2007,05,24,10,35,16.50
2007,05,24,10,36,16.40
2007,05,24,10,37,16.30
2007,05,24,10,38,16.30
2007,05,24,10,39,16.30
2007,05,24,10,40,16.30
2007,05,24,10,41,16.30
2007,05,24,10,42,16.30
2007,05,24,10,43,16.30
2007,05,24,10,44,16.30
2007,05,24,10,45,16.30
2007,05,24,10,46,16.30
2007,05,24,10,47,16.30
2007,05,24,10,48,16.30
2007,05,24,10,49,16.30
2007,05,24,10,50,16.20
2007,05,24,10,51,16.20
2007,05,24,10,52,16.10
2007,05,24,10,53,16.20
2007,05,24,10,54,16.20
2007,05,24,10,55,16.20
2007,05,24,10,56,16.20
2007,05,24,10,57,16.20
2007,05,24,10,58,16.20
2007,05,24,10,59,16.10
2007,05,24,11,00,16.10
2007,05,24,11,01,16.10
2007,05,24,11,02,16.20
2007,05,24,11,03,16.20
2007,05,24,11,04,16.20
2007,05,24,11,05,16.20
2007,05,24,11,06,16.10
2007,05,24,11,07,16.10
2007,05,24,11,08,16.10
2007,05,24,11,09,16.10
2007,05,24,11,10,16.00
2007,05,24,11,11,16.00
2007,05,24,11,12,16.10
2007,05,24,11,13,16.20
2007,05,24,11,14,16.20
2007,05,24,11,15,16.30
2007,05,24,11,16,16.30
2007,05,24,11,17,16.30
2007,05,24,11,18,16.30
2007,05,24,11,19,16.30
2007,05,24,11,20,16.30
2007,05,24,11,21,16.40
2007,05,24,11,22,16.40
2007,05,24,11,23,16.40
2007,05,24,11,24,16.50
2007,05,24,11,25,16.50
2007,05,24,11,26,16.50
2007,05,24,11,27,16.50
2007,05,24,11,28,16.40
2007,05,24,11,29,16.40
2007,05,24,11,30,16.30
2007,05,24,11,31,16.40
2007,05,24,11,32,16.40
2007,05,24,11,33,16.50
2007,05,24,11,34,16.50
2007,05,24,11,35,16.50
2007,05,24,11,36,16.50
2007,05,24,11,37,16.50
2007,05,24,11,38,16.60
2007,05,24,11,39,16.60
2007,05,24,11,40,16.60
2007,05,24,11,41,16.60
2007,05,24,11,42,16.60
2007,05,24,11,43,16.60
2007,05,24,11,44,16.60
2007,05,24,11,45,16.60
2007,05,24,11,46,16.60
2007,05,24,11,47,16.60
2007,05,24,11,48,16.50
2007,05,24,11,49,16.50
2007,05,24,11,50,16.40
2007,05,24,11,51,16.40
2007,05,24,11,52,16.40
2007,05,24,11,53,16.40
2007,05,24,11,54,16.50
2007,05,24,11,55,16.60
2007,05,24,11,56,16.60
2007,05,24,11,57,16.70
2007,05,24,11,58,16.70
2007,05,24,11,59,16.70
2007,05,24,12,00,16.70
2007,05,24,12,01,16.70
2007,05,24,12,02,16.70
2007,05,24,12,03,16.70
2007,05,24,12,04,16.60
2007,05,24,12,05,16.60
2007,05,24,12,06,16.60
2007,05,24,12,07,16.50
2007,05,24,12,08,16.40
2007,05,24,12,09,16.40
2007,05,24,12,10,16.40
2007,05,24,12,11,16.30
2007,05,24,12,12,16.30
2007,05,24,12,13,16.40
2007,05,24,12,14,16.40
2007,05,24,12,15,16.40
2007,05,24,12,16,16.40
2007,05,24,12,17,16.40
2007,05,24,12,18,16.50
2007,05,24,12,19,16.50
2007,05,24,12,20,16.50
2007,05,24,12,21,16.60
2007,05,24,12,22,16.70
2007,05,24,12,23,16.80
2007,05,24,12,24,16.90
2007,05,24,12,25,16.90
2007,05,24,12,26,16.90
2007,05,24,12,27,16.80
2007,05,24,12,28,16.80
2007,05,24,12,29,16.80
2007,05,24,12,30,16.80
2007,05,24,12,31,16.80
2007,05,24,12,32,16.80
2007,05,24,12,33,16.80
2007,05,24,12,34,16.80
2007,05,24,12,35,16.80
2007,05,24,12,36,16.70
2007,05,24,12,37,16.60
2007,05,24,12,38,16.50
2007,05,24,12,39,16.50
2007,05,24,12,40,16.50
2007,05,24,12,41,16.50
2007,05,24,12,42,16.60
2007,05,24,12,43,16.70
2007,05,24,12,44,16.80
2007,05,24,12,45,16.90
2007,05,24,12,46,16.90
2007,05,24,12,47,17.00
2007,05,24,12,48,17.00
2007,05,24,12,49,17.10
2007,05,24,12,50,17.10
2007,05,24,12,51,17.10
2007,05,24,12,52,17.00
2007,05,24,12,53,17.10
2007,05,24,12,54,17.00
2007,05,24,12,55,17.00
2007,05,24,12,56,17.00
2007,05,24,12,57,17.00
2007,05,24,12,58,16.90
2007,05,24,12,59,16.90
2007,05,24,13,00,17.00
2007,05,24,13,01,17.10
2007,05,24,13,02,17.20
2007,05,24,13,03,17.20
2007,05,24,13,04,17.30
2007,05,24,13,05,17.30
2007,05,24,13,06,17.30
2007,05,24,13,07,17.40
2007,05,24,13,08,17.40
2007,05,24,13,09,17.40
2007,05,24,13,10,17.50
2007,05,24,13,11,17.60
2007,05,24,13,12,17.70
2007,05,24,13,13,17.80
2007,05,24,13,14,17.80
2007,05,24,13,15,17.80
2007,05,24,13,16,17.80
2007,05,24,13,17,17.90
2007,05,24,13,18,17.90
2007,05,24,13,19,17.90
2007,05,24,13,20,18.00
2007,05,24,13,21,18.00
2007,05,24,13,22,17.90
2007,05,24,13,23,17.90
2007,05,24,13,24,17.90
2007,05,24,13,25,17.90
2007,05,24,13,26,17.90
2007,05,24,13,27,17.90
2007,05,24,13,28,17.90
2007,05,24,13,29,17.90
2007,05,24,13,30,18.00
2007,05,24,13,31,18.10
2007,05,24,13,32,18.20
2007,05,24,13,33,18.20
2007,05,24,13,34,18.30
2007,05,24,13,35,18.30
2007,05,24,13,36,18.30
2007,05,24,13,37,18.30
2007,05,24,13,38,18.30
2007,05,24,13,39,18.30
2007,05,24,13,40,18.40
2007,05,24,13,41,18.40
2007,05,24,13,42,18.40
2007,05,24,13,43,18.50
2007,05,24,13,44,18.60
2007,05,24,13,45,18.70
2007,05,24,13,46,18.70
2007,05,24,13,47,18.80
2007,05,24,13,48,18.70
2007,05,24,13,49,18.70
2007,05,24,13,50,18.60
2007,05,24,13,51,18.60
2007,05,24,13,52,18.60
2007,05,24,13,53,18.60
2007,05,24,13,54,18.60
2007,05,24,13,55,18.60
2007,05,24,13,56,18.60
2007,05,24,13,57,18.70
2007,05,24,13,58,18.80
2007,05,24,13,59,18.70
2007,05,24,14,00,18.70
2007,05,24,14,01,18.70
2007,05,24,14,02,18.80
2007,05,24,14,03,18.80
2007,05,24,14,04,18.80
2007,05,24,14,05,18.80
2007,05,24,14,06,18.80
2007,05,24,14,07,18.90
2007,05,24,14,08,19.00
2007,05,24,14,09,19.10
2007,05,24,14,10,19.20
2007,05,24,14,11,19.20
2007,05,24,14,12,19.20
2007,05,24,14,13,19.30
2007,05,24,14,14,19.40
2007,05,24,14,15,19.40
2007,05,24,14,16,19.40
2007,05,24,14,17,19.40
2007,05,24,14,18,19.40
2007,05,24,14,19,19.40
2007,05,24,14,20,19.40
2007,05,24,14,21,19.40
2007,05,24,14,22,19.40
2007,05,24,14,23,19.40
2007,05,24,14,24,19.50
2007,05,24,14,25,19.50
2007,05,24,14,26,19.60
2007,05,24,14,27,19.50
2007,05,24,14,28,19.50
2007,05,24,14,29,19.40
2007,05,24,14,30,19.40
2007,05,24,14,31,19.40
2007,05,24,14,32,19.50
2007,05,24,14,33,19.50
2007,05,24,14,34,19.50
2007,05,24,14,35,19.40
2007,05,24,14,36,19.40
2007,05,24,14,37,19.40
2007,05,24,14,38,19.40
2007,05,24,14,39,19.30
2007,05,24,14,40,19.30
2007,05,24,14,41,19.40
2007,05,24,14,42,19.40
2007,05,24,14,43,19.40
2007,05,24,14,44,19.40
2007,05,24,14,45,19.40
2007,05,24,14,46,19.40
2007,05,24,14,47,19.40
2007,05,24,14,48,19.40
2007,05,24,14,49,19.40
2007,05,24,14,50,19.40
2007,05,24,14,51,19.40
2007,05,24,14,52,19.30
2007,05,24,14,53,19.30
2007,05,24,14,54,19.20
2007,05,24,14,55,19.20
2007,05,24,14,56,19.20
2007,05,24,14,57,19.20
2007,05,24,14,58,19.20
2007,05,24,14,59,19.30
2007,05,24,15,00,19.30
2007,05,24,15,01,19.40
2007,05,24,15,02,19.40
2007,05,24,15,03,19.40
2007,05,24,15,04,19.40
2007,05,24,15,05,19.50
2007,05,24,15,06,19.50
2007,05,24,15,07,19.50
2007,05,24,15,08,19.50
2007,05,24,15,09,19.40
2007,05,24,15,10,19.40
2007,05,24,15,11,19.50
2007,05,24,15,12,19.50
2007,05,24,15,13,19.60
2007,05,24,15,14,19.70
2007,05,24,15,15,19.70
2007,05,24,15,16,19.70
2007,05,24,15,17,19.70
2007,05,24,15,18,19.70
2007,05,24,15,19,19.70
2007,05,24,15,20,19.70
2007,05,24,15,21,19.80
2007,05,24,15,22,19.80
2007,05,24,15,23,19.90
2007,05,24,15,24,19.90
2007,05,24,15,25,20.00
2007,05,24,15,26,20.00
2007,05,24,15,27,20.00
2007,05,24,15,28,20.00
2007,05,24,15,29,20.00
2007,05,24,15,30,20.00
2007,05,24,15,31,20.00
2007,05,24,15,32,20.00
2007,05,24,15,33,20.00
2007,05,24,15,34,20.10
2007,05,24,15,35,20.20
2007,05,24,15,36,20.20
2007,05,24,15,37,20.30
2007,05,24,15,38,20.30
2007,05,24,15,39,20.40
2007,05,24,15,40,20.40
2007,05,24,15,41,20.40
2007,05,24,15,42,20.40
2007,05,24,15,43,20.30
2007,05,24,15,44,20.30
2007,05,24,15,45,20.20
2007,05,24,15,46,20.20
2007,05,24,15,47,20.20
2007,05,24,15,48,20.20
2007,05,24,15,49,20.20
2007,05,24,15,50,20.20
2007,05,24,15,51,20.30
2007,05,24,15,52,20.30
2007,05,24,15,53,20.30
2007,05,24,15,54,20.30
2007,05,24,15,55,20.30
2007,05,24,15,56,20.30
2007,05,24,15,57,20.30
2007,05,24,15,58,20.20
2007,05,24,15,59,20.20
2007,05,24,16,00,20.20
2007,05,24,16,01,20.20
2007,05,24,16,02,20.10
2007,05,24,16,03,20.10
2007,05,24,16,04,20.00
2007,05,24,16,05,20.10
2007,05,24,16,06,20.10
2007,05,24,16,07,20.10
2007,05,24,16,08,20.10
2007,05,24,16,09,20.10
2007,05,24,16,10,20.00
2007,05,24,16,11,20.00
2007,05,24,16,12,20.10
2007,05,24,16,13,20.10
2007,05,24,16,14,20.20
2007,05,24,16,15,20.30
2007,05,24,16,16,20.30
2007,05,24,16,17,20.30
2007,05,24,16,18,20.30
2007,05,24,16,19,20.30
2007,05,24,16,20,20.30
2007,05,24,16,21,20.30
2007,05,24,16,22,20.30
2007,05,24,16,23,20.30
2007,05,24,16,24,20.30
2007,05,24,16,25,20.40
2007,05,24,16,26,20.50
2007,05,24,16,27,20.50
2007,05,24,16,28,20.60
2007,05,24,16,29,20.70
2007,05,24,16,30,20.70
2007,05,24,16,31,20.70
2007,05,24,16,32,20.80
2007,05,24,16,33,20.80
2007,05,24,16,34,20.80
2007,05,24,16,35,20.90
2007,05,24,16,36,21.00
2007,05,24,16,37,21.00
2007,05,24,16,38,21.10
2007,05,24,16,39,21.10
2007,05,24,16,40,21.20
2007,05,24,16,41,21.30
2007,05,24,16,42,21.40
2007,05,24,16,43,21.50
2007,05,24,16,44,21.60
2007,05,24,16,45,21.70
2007,05,24,16,46,21.80
2007,05,24,16,47,21.80
2007,05,24,16,48,21.90
2007,05,24,16,49,22.00
2007,05,24,16,50,22.00
2007,05,24,16,51,22.10
2007,05,24,16,52,22.20
2007,05,24,16,53,22.30
2007,05,24,16,54,22.40
2007,05,24,16,55,22.50
2007,05,24,16,56,22.60
2007,05,24,16,57,22.60
2007,05,24,16,58,22.60
2007,05,24,16,59,22.60
2007,05,24,17,00,22.70
2007,05,24,17,01,22.70
2007,05,24,17,02,22.70
2007,05,24,17,03,22.70
2007,05,24,17,04,22.70
2007,05,24,17,05,22.70
2007,05,24,17,06,22.70
2007,05,24,17,07,22.70
2007,05,24,17,08,22.70
2007,05,24,17,09,22.70
2007,05,24,17,10,22.70
2007,05,24,17,11,22.70
2007,05,24,17,12,22.70
2007,05,24,17,13,22.70
2007,05,24,17,14,22.80
2007,05,24,17,15,22.80
2007,05,24,17,16,22.80
2007,05,24,17,17,22.80
2007,05,24,17,18,22.80
2007,05,24,17,19,22.70
2007,05,24,17,20,22.60
2007,05,24,17,21,22.50
2007,05,24,17,22,22.40
2007,05,24,17,23,22.40
2007,05,24,17,24,22.30
2007,05,24,17,25,22.30
2007,05,24,17,26,22.30
2007,05,24,17,27,22.30
2007,05,24,17,28,22.30
2007,05,24,17,29,22.30
2007,05,24,17,30,22.30
2007,05,24,17,31,22.40
2007,05,24,17,32,22.40
2007,05,24,17,33,22.40
2007,05,24,17,34,22.50